Home   Weather   Grand Rapids   Past weeks
Flag for USA

Past Weather in Grand Rapids, Michigan, USA — Yesterday and Last 2 Weeks

Now
34 °F

Overcast.


Feels Like: 27 °F
Forecast: 30 / 43 °F
Wind: 9 mph from South

Location: Kent County International Airport

Current Time: Dec 19, 2018 at 10:50:11 am

Latest Report: Dec 19, 2018 at 9:53 am


Visibility: 10 mi

Pressure: 29.93 "Hg

Humidity: 73%

Dew Point: 26 °F

Location of Grand RapidsLocation

Past Weather in Grand Rapids — Graph

°F

Grand Rapids Temperature Yesterday

Maximum temperature yesterday: 37 °F (at 3:53 pm)
Minimum temperature yesterday: 20 °F (at 6:53 am)
Average temperature yesterday: 29 °F

High & Low Weather Summary for the Past Weeks

 TemperatureHumidityPressure
High41 °F (Dec 14, 1:14 pm)100% (Dec 14, 7:53 pm)30.63 "Hg (Dec 14, 7:53 pm)
Low13 °F (Dec 9, 4:53 am)53% (Dec 17, 3:53 pm)29.76 "Hg (Dec 12, 1:24 pm)
Average30 °F79%30.17 "Hg
* Reported Dec 4 8:53 am — Dec 19 8:53 am, Grand Rapids. Weather by CustomWeather, © 2018

Note: Actual official high and low records may vary slightly from our data, if they occured in-between our weather recording intervals... More about our weather records

Advertising

Grand Rapids Weather History for the Previous 24 Hours

Scroll right to see more
 ConditionsComfort  
Time TempWeatherWind HumidityBarometerVisibility
8:53 am
Wed, Dec 19
33 °FPartly sunny.8 mph72%29.95 "Hg10 mi
7:53 am31 °FPassing clouds.8 mph76%29.96 "Hg10 mi
6:53 am29 °FPassing clouds.6 mph79%29.96 "Hg10 mi
5:53 am29 °FPassing clouds.5 mph79%29.98 "Hg10 mi
4:53 am29 °FClear.5 mph79%29.99 "Hg10 mi
3:53 am30 °FClear.8 mph79%30.00 "Hg10 mi
2:53 am31 °FClear.8 mph76%30.01 "Hg10 mi
1:53 am31 °FClear.5 mph76%30.01 "Hg10 mi
12:53 am31 °FClear.10 mph76%30.01 "Hg10 mi
11:53 pm
Tue, Dec 18
32 °FPassing clouds.7 mph73%30.04 "Hg10 mi
10:53 pm33 °FPassing clouds.8 mph70%30.05 "Hg10 mi
9:53 pm33 °FPassing clouds.9 mph72%30.07 "Hg10 mi
8:53 pm32 °FPassing clouds.8 mph73%30.09 "Hg10 mi
7:53 pm32 °FPassing clouds.7 mph73%30.12 "Hg10 mi
6:53 pm33 °FPassing clouds.8 mph70%30.12 "Hg10 mi
5:53 pm33 °FPassing clouds.8 mph66%30.13 "Hg10 mi
4:53 pm35 °FScattered clouds.6 mph61%30.14 "Hg10 mi
3:53 pm37 °FScattered clouds.6 mph57%30.16 "Hg10 mi
2:53 pm36 °FScattered clouds.9 mph59%30.17 "Hg10 mi
1:53 pm35 °FPartly sunny.9 mph61%30.19 "Hg10 mi
12:53 pm34 °FPartly sunny.8 mph64%30.22 "Hg10 mi
11:53 am32 °FScattered clouds.6 mph66%30.26 "Hg10 mi
10:53 am30 °FPassing clouds.7 mph75%30.29 "Hg10 mi
Weather by CustomWeather, © 2018

See weather overview